Find Starlink 31909

NORAD ID: 59663 Int'l Des: 2024-084 Owner: SPXS Country: US Constellation: starlink operational
LEOCIRCULAR

現在のビュー

3D地球を読み込み中...

About Starlink 31909

Starlink 31909 (NORAD 59663) is a starlink constellation satellite (v2 mini) launched May 6, 2024 by SPXS of US. It operates in LEO, CIRCULAR orbit with a mass of 730.00 kg.

Starlink 31909について

説明を読み込み中...

次回通過

Passes for default location (London). Set your location on the main map for personalized predictions.

高度履歴

Loading altitude history...

軌道要素

1 59663U 24084K 26174.65348626 .00000007 00000-0 97683-5 0 9992
2 59663 43.0022 163.0035 0001173 272.3775 87.6942 15.27574441120587
Epoch: Jun 23, 2026 • Age: 12 hours

現在のステータス

高度 491.5 km
速度 7.62 km/s
衛星直下点 -32.84°S, 144.14°E
打ち上げ日 May 6, 2024
運用期間 2.1 years
タイプ internet

技術仕様

分類 Payload
質量 730.00 kg
乾燥質量 700.00 kg
総質量 730.00 kg
長さ 0.30 m
直径 4.10 m
スパン 29.00 m
形状 Box + pan
製造者 SPXS
バスタイプ Starlink V2M
フェーズステータス In Orbit
所有者/国 SPXS/US

Most Searched